Location: Newark
(12.1500°S, 17.6667°E)
Time: 09:20:41
(UTC+00:00)

OTV 5 (USA 277) - Visible Passes

Search period start: 18 September 2019 00:00
Search period end: 28 September 2019 00:00
Orbit: 295 x 339 km, 54.5° (Epoch: 08 September)

Date Brightness Start Highest point End Pass type
(mag) Time Alt. Az. Time Alt. Az. Time Alt. Az.
21 Sep ? 04:08:39 10° SE 04:09:09 10° SE 04:09:39 10° ESE visible
22 Sep ? 17:20:51 10° NNW 17:23:16 39° ENE 17:25:20 13° SE visible
23 Sep ? 17:35:28 10° WNW 17:37:44 28° SW 17:40:03 10° S visible
24 Sep ? 03:16:29 11° S 03:18:33 19° SE 03:20:42 10° ENE visible
25 Sep ? 03:32:18 45° SW 03:33:04 84° WNW 03:35:54 10° NNE visible
26 Sep ? 03:48:11 16° NW 03:48:11 16° NW 03:49:26 10° NNW visible
